owner,sensor,date,latitude,longitude,vertical_datum,sea_water_practical_salinity,qcFlag 
SCCF RECON,ioos:station:SCCF:18:1,2013-08-01T00:00:00Z,26.6955,-81.8138,1.0,-9999.0,1111122 
SCCF RECON,ioos:station:SCCF:18:1,2013-08-01T01:00:00Z,26.6955,-81.8138,1.0,-9999.0,1111122 
SCCF RECON,ioos:station:SCCF:18:1,2013-08-01T02:00:00Z,26.6955,-81.8138,1.0,-9999.0,1111122 
SCCF RECON,ioos:station:SCCF:18:1,2013-08-01T03:00:00Z,26.6955,-81.8138,1.0,-9999.0,1111122 
SCCF RECON,ioos:station:SCCF:18:1,2013-08-01T04:00:00Z,26.6955,-81.8138,1.0,-9999.0,1111122 
SCCF RECON,ioos:station:SCCF:18:1,2013-08-01T05:00:00Z,26.6955,-81.8138,1.0,-9999.0,1111122 
SCCF RECON,ioos:station:SCCF:18:1,2013-08-01T06:00:00Z,26.6955,-81.8138,1.0,-9999.0,1111122 
SCCF RECON,ioos:station:SCCF:18:1,2013-08-01T07:00:00Z,26.6955,-81.8138,1.0,-9999.0,1111122 
SCCF RECON,ioos:station:SCCF:18:1,2013-08-01T08:00:00Z,26.6955,-81.8138,1.0,-9999.0,1111122 
SCCF RECON,ioos:station:SCCF:18:1,2013-08-01T09:00:00Z,26.6955,-81.8138,1.0,-9999.0,1111122 
SCCF RECON,ioos:station:SCCF:18:1,2013-08-01T10:00:00Z,26.6955,-81.8138,1.0,-9999.0,1111122 
SCCF RECON,ioos:station:SCCF:18:1,2013-08-01T11:00:00Z,26.6955,-81.8138,1.0,-9999.0,1111122 
SCCF RECON,ioos:station:SCCF:18:1,2013-08-01T12:00:00Z,26.6955,-81.8138,1.0,-9999.0,1111122 
SCCF RECON,ioos:station:SCCF:18:1,2013-08-01T13:00:00Z,26.6955,-81.8138,1.0,-9999.0,1111122 
SCCF RECON,ioos:station:SCCF:18:1,2013-08-01T14:00:00Z,26.6955,-81.8138,1.0,-9999.0,1111122 
SCCF RECON,ioos:station:SCCF:18:1,2013-08-01T15:00:00Z,26.6955,-81.8138,1.0,-9999.0,1111122 
SCCF RECON,ioos:station:SCCF:18:1,2013-08-01T16:00:00Z,26.6955,-81.8138,1.0,-9999.0,1111122 
SCCF RECON,ioos:station:SCCF:18:1,2013-08-01T17:00:00Z,26.6955,-81.8138,1.0,-9999.0,1111122 
SCCF RECON,ioos:station:SCCF:18:1,2013-08-01T18:00:00Z,26.6955,-81.8138,1.0,-9999.0,1111122 
SCCF RECON,ioos:station:SCCF:18:1,2013-08-01T19:00:00Z,26.6955,-81.8138,1.0,-9999.0,1111122 
SCCF RECON,ioos:station:SCCF:18:1,2013-08-01T20:00:00Z,26.6955,-81.8138,1.0,-9999.0,1111122 
SCCF RECON,ioos:station:SCCF:18:1,2013-08-01T21:00:00Z,26.6955,-81.8138,1.0,-9999.0,1111122 
SCCF RECON,ioos:station:SCCF:18:1,2013-08-01T22:00:00Z,26.6955,-81.8138,1.0,-9999.0,1111122 
SCCF RECON,ioos:station:SCCF:18:1,2013-08-01T23:00:00Z,26.6955,-81.8138,1.0,-9999.0,1111122 
SCCF RECON,ioos:station:SCCF:18:1,2013-08-02T00:00:00Z,26.6955,-81.8138,1.0,-9999.0,1111122 
SCCF RECON,ioos:station:SCCF:18:1,2013-08-02T01:00:00Z,26.6955,-81.8138,1.0,-9999.0,1111122 
SCCF RECON,ioos:station:SCCF:18:1,2013-08-02T02:00:00Z,26.6955,-81.8138,1.0,-9999.0,1111122 
SCCF RECON,ioos:station:SCCF:18:1,2013-08-02T03:00:00Z,26.6955,-81.8138,1.0,-9999.0,1111122 
SCCF RECON,ioos:station:SCCF:18:1,2013-08-02T04:00:00Z,26.6955,-81.8138,1.0,-9999.0,1111122 
SCCF RECON,ioos:station:SCCF:18:1,2013-08-02T05:00:00Z,26.6955,-81.8138,1.0,-9999.0,1111122 
SCCF RECON,ioos:station:SCCF:18:1,2013-08-02T06:00:00Z,26.6955,-81.8138,1.0,-9999.0,1111122 
SCCF RECON,ioos:station:SCCF:18:1,2013-08-02T07:00:00Z,26.6955,-81.8138,1.0,-9999.0,1111122 
SCCF RECON,ioos:station:SCCF:18:1,2013-08-02T08:00:00Z,26.6955,-81.8138,1.0,-9999.0,1111122 
SCCF RECON,ioos:station:SCCF:18:1,2013-08-02T09:00:00Z,26.6955,-81.8138,1.0,-9999.0,1111122 
SCCF RECON,ioos:station:SCCF:18:1,2013-08-02T10:00:00Z,26.6955,-81.8138,1.0,-9999.0,1111122 
SCCF RECON,ioos:station:SCCF:18:1,2013-08-02T11:00:00Z,26.6955,-81.8138,1.0,-9999.0,1111122 
SCCF RECON,ioos:station:SCCF:18:1,2013-08-02T12:00:00Z,26.6955,-81.8138,1.0,-9999.0,1111122 
SCCF RECON,ioos:station:SCCF:18:1,2013-08-02T13:00:00Z,26.6955,-81.8138,1.63,0.18,1111122 
SCCF RECON,ioos:station:SCCF:18:1,2013-08-02T14:00:00Z,26.6955,-81.8138,1.0,-9999.0,1111122 
SCCF RECON,ioos:station:SCCF:18:1,2013-08-02T15:00:00Z,26.6955,-81.8138,1.77,0.18,1111122 
SCCF RECON,ioos:station:SCCF:18:1,2013-08-02T16:00:00Z,26.6955,-81.8138,1.0,-9999.0,1111122 
SCCF RECON,ioos:station:SCCF:18:1,2013-08-02T17:00:00Z,26.6955,-81.8138,1.0,-9999.0,1111122 
SCCF RECON,ioos:station:SCCF:18:1,2013-08-02T18:00:00Z,26.6955,-81.8138,1.0,-9999.0,1111122 
SCCF RECON,ioos:station:SCCF:18:1,2013-08-02T19:00:00Z,26.6955,-81.8138,1.0,-9999.0,1111122 
SCCF RECON,ioos:station:SCCF:18:1,2013-08-02T20:00:00Z,26.6955,-81.8138,1.0,-9999.0,1111122 
SCCF RECON,ioos:station:SCCF:18:1,2013-08-02T21:00:00Z,26.6955,-81.8138,1.0,-9999.0,1111122 
SCCF RECON,ioos:station:SCCF:18:1,2013-08-02T22:00:00Z,26.6955,-81.8138,1.0,-9999.0,1111122 
SCCF RECON,ioos:station:SCCF:18:1,2013-08-02T23:00:00Z,26.6955,-81.8138,1.0,-9999.0,1111122 
SCCF RECON,ioos:station:SCCF:18:1,2013-08-03T00:00:00Z,26.6955,-81.8138,1.0,-9999.0,1111122 
SCCF RECON,ioos:station:SCCF:18:1,2013-08-03T01:00:00Z,26.6955,-81.8138,1.0,-9999.0,1111122 
SCCF RECON,ioos:station:SCCF:18:1,2013-08-03T02:00:00Z,26.6955,-81.8138,1.0,-9999.0,1111122 
SCCF RECON,ioos:station:SCCF:18:1,2013-08-03T03:00:00Z,26.6955,-81.8138,1.0,-9999.0,1111122 
SCCF RECON,ioos:station:SCCF:18:1,2013-08-03T04:00:00Z,26.6955,-81.8138,1.0,-9999.0,1111122 
SCCF RECON,ioos:station:SCCF:18:1,2013-08-03T05:00:00Z,26.6955,-81.8138,1.0,-9999.0,1111122 
SCCF RECON,ioos:station:SCCF:18:1,2013-08-03T06:00:00Z,26.6955,-81.8138,1.0,-9999.0,1111122 
SCCF RECON,ioos:station:SCCF:18:1,2013-08-03T07:00:00Z,26.6955,-81.8138,1.0,-9999.0,1111122 
SCCF RECON,ioos:station:SCCF:18:1,2013-08-03T08:00:00Z,26.6955,-81.8138,1.0,-9999.0,1111122 
SCCF RECON,ioos:station:SCCF:18:1,2013-08-03T09:00:00Z,26.6955,-81.8138,1.0,-9999.0,1111122 
SCCF RECON,ioos:station:SCCF:18:1,2013-08-03T10:00:00Z,26.6955,-81.8138,1.0,-9999.0,1111122 
SCCF RECON,ioos:station:SCCF:18:1,2013-08-03T11:00:00Z,26.6955,-81.8138,1.0,-9999.0,1111122 
SCCF RECON,ioos:station:SCCF:18:1,2013-08-03T12:00:00Z,26.6955,-81.8138,1.0,-9999.0,1111122 
SCCF RECON,ioos:station:SCCF:18:1,2013-08-03T13:00:00Z,26.6955,-81.8138,1.0,-9999.0,1111122 
SCCF RECON,ioos:station:SCCF:18:1,2013-08-03T14:00:00Z,26.6955,-81.8138,1.0,-9999.0,1111122 
SCCF RECON,ioos:station:SCCF:18:1,2013-08-03T15:00:00Z,26.6955,-81.8138,1.0,-9999.0,1111122 
SCCF RECON,ioos:station:SCCF:18:1,2013-08-03T16:00:00Z,26.6955,-81.8138,1.0,-9999.0,1111122 
SCCF RECON,ioos:station:SCCF:18:1,2013-08-03T17:00:00Z,26.6955,-81.8138,1.0,-9999.0,1111122 
SCCF RECON,ioos:station:SCCF:18:1,2013-08-03T18:00:00Z,26.6955,-81.8138,1.0,-9999.0,1111122 
SCCF RECON,ioos:station:SCCF:18:1,2013-08-03T19:00:00Z,26.6955,-81.8138,1.0,-9999.0,1111122 
SCCF RECON,ioos:station:SCCF:18:1,2013-08-03T20:00:00Z,26.6955,-81.8138,1.0,-9999.0,1111122 
SCCF RECON,ioos:station:SCCF:18:1,2013-08-03T21:00:00Z,26.6955,-81.8138,1.0,-9999.0,1111122 
SCCF RECON,ioos:station:SCCF:18:1,2013-08-03T22:00:00Z,26.6955,-81.8138,1.8,0.17,1111122 
SCCF RECON,ioos:station:SCCF:18:1,2013-08-03T23:00:00Z,26.6955,-81.8138,1.76,0.17,1111122 
SCCF RECON,ioos:station:SCCF:18:1,2013-08-04T00:00:00Z,26.6955,-81.8138,1.72,0.17,1111122 
SCCF RECON,ioos:station:SCCF:18:1,2013-08-04T01:00:00Z,26.6955,-81.8138,1.67,0.18,1111122 
SCCF RECON,ioos:station:SCCF:18:1,2013-08-04T02:00:00Z,26.6955,-81.8138,1.64,0.18,1111122 
SCCF RECON,ioos:station:SCCF:18:1,2013-08-04T03:00:00Z,26.6955,-81.8138,1.61,0.18,1111122 
SCCF RECON,ioos:station:SCCF:18:1,2013-08-04T04:00:00Z,26.6955,-81.8138,1.6,0.18,1111122 
SCCF RECON,ioos:station:SCCF:18:1,2013-08-04T05:00:00Z,26.6955,-81.8138,1.61,0.18,1111122 
SCCF RECON,ioos:station:SCCF:18:1,2013-08-04T06:00:00Z,26.6955,-81.8138,1.65,0.18,1111122 
SCCF RECON,ioos:station:SCCF:18:1,2013-08-04T07:00:00Z,26.6955,-81.8138,1.7,0.18,1111122 
SCCF RECON,ioos:station:SCCF:18:1,2013-08-04T08:00:00Z,26.6955,-81.8138,1.72,0.18,1111122 
SCCF RECON,ioos:station:SCCF:18:1,2013-08-04T09:00:00Z,26.6955,-81.8138,1.72,0.18,1111122 
SCCF RECON,ioos:station:SCCF:18:1,2013-08-04T10:00:00Z,26.6955,-81.8138,1.7,0.18,1111122 
SCCF RECON,ioos:station:SCCF:18:1,2013-08-04T11:00:00Z,26.6955,-81.8138,1.68,0.18,1111122 
SCCF RECON,ioos:station:SCCF:18:1,2013-08-04T12:00:00Z,26.6955,-81.8138,1.66,0.18,1111122 
SCCF RECON,ioos:station:SCCF:18:1,2013-08-04T13:00:00Z,26.6955,-81.8138,1.638,0.18,1111122 
SCCF RECON,ioos:station:SCCF:18:1,2013-08-04T14:00:00Z,26.6955,-81.8138,1.64,0.18,1111122 
SCCF RECON,ioos:station:SCCF:18:1,2013-08-04T15:00:00Z,26.6955,-81.8138,1.69,0.18,1111122 
SCCF RECON,ioos:station:SCCF:18:1,2013-08-04T16:00:00Z,26.6955,-81.8138,1.77,0.18,1111122 
SCCF RECON,ioos:station:SCCF:18:1,2013-08-04T17:00:00Z,26.6955,-81.8138,1.83,0.18,1111122 
SCCF RECON,ioos:station:SCCF:18:1,2013-08-04T18:00:00Z,26.6955,-81.8138,1.88,0.18,1111122 
SCCF RECON,ioos:station:SCCF:18:1,2013-08-04T19:00:00Z,26.6955,-81.8138,1.91,0.18,1111122 
SCCF RECON,ioos:station:SCCF:18:1,2013-08-04T20:00:00Z,26.6955,-81.8138,1.88,0.18,1111122 
SCCF RECON,ioos:station:SCCF:18:1,2013-08-04T21:00:00Z,26.6955,-81.8138,1.85,0.18,1111122 
SCCF RECON,ioos:station:SCCF:18:1,2013-08-04T22:00:00Z,26.6955,-81.8138,1.8,0.18,1111122 
SCCF RECON,ioos:station:SCCF:18:1,2013-08-04T23:00:00Z,26.6955,-81.8138,1.74,0.18,1111122 
SCCF RECON,ioos:station:SCCF:18:1,2013-08-05T00:00:00Z,26.6955,-81.8138,1.7,0.18,1111122 
SCCF RECON,ioos:station:SCCF:18:1,2013-08-05T01:00:00Z,26.6955,-81.8138,1.65,0.18,1111122 
SCCF RECON,ioos:station:SCCF:18:1,2013-08-05T02:00:00Z,26.6955,-81.8138,1.62,0.18,1111122 
SCCF RECON,ioos:station:SCCF:18:1,2013-08-05T03:00:00Z,26.6955,-81.8138,1.58,0.18,1111122 
SCCF RECON,ioos:station:SCCF:18:1,2013-08-05T04:00:00Z,26.6955,-81.8138,1.57,0.18,1111122 
SCCF RECON,ioos:station:SCCF:18:1,2013-08-05T05:00:00Z,26.6955,-81.8138,1.58,0.18,1111122 
SCCF RECON,ioos:station:SCCF:18:1,2013-08-05T06:00:00Z,26.6955,-81.8138,1.64,0.17,1111122 
SCCF RECON,ioos:station:SCCF:18:1,2013-08-05T07:00:00Z,26.6955,-81.8138,1.69,0.18,1111122 
SCCF RECON,ioos:station:SCCF:18:1,2013-08-05T08:00:00Z,26.6955,-81.8138,1.73,0.18,1111122 
SCCF RECON,ioos:station:SCCF:18:1,2013-08-05T09:00:00Z,26.6955,-81.8138,1.74,0.18,1111122 
SCCF RECON,ioos:station:SCCF:18:1,2013-08-05T10:00:00Z,26.6955,-81.8138,1.73,0.18,1111122 
SCCF RECON,ioos:station:SCCF:18:1,2013-08-05T11:00:00Z,26.6955,-81.8138,1.7,0.18,1111122 
SCCF RECON,ioos:station:SCCF:18:1,2013-08-05T12:00:00Z,26.6955,-81.8138,1.67,0.18,1111122 
SCCF RECON,ioos:station:SCCF:18:1,2013-08-05T13:00:00Z,26.6955,-81.8138,1.65,0.17,1111122 
SCCF RECON,ioos:station:SCCF:18:1,2013-08-05T14:00:00Z,26.6955,-81.8138,1.621,0.17,1111122 
SCCF RECON,ioos:station:SCCF:18:1,2013-08-05T15:00:00Z,26.6955,-81.8138,1.621,0.17,1111122 
SCCF RECON,ioos:station:SCCF:18:1,2013-08-05T16:00:00Z,26.6955,-81.8138,1.695,0.17,1111122 
SCCF RECON,ioos:station:SCCF:18:1,2013-08-05T17:00:00Z,26.6955,-81.8138,1.77,0.17,1111122 
SCCF RECON,ioos:station:SCCF:18:1,2013-08-05T18:00:00Z,26.6955,-81.8138,1.83,0.17,1111122 
SCCF RECON,ioos:station:SCCF:18:1,2013-08-05T19:00:00Z,26.6955,-81.8138,1.87,0.17,1111122 
SCCF RECON,ioos:station:SCCF:18:1,2013-08-05T20:00:00Z,26.6955,-81.8138,1.89,0.17,1111122 
SCCF RECON,ioos:station:SCCF:18:1,2013-08-05T21:00:00Z,26.6955,-81.8138,1.86,0.17,1111122 
SCCF RECON,ioos:station:SCCF:18:1,2013-08-05T22:00:00Z,26.6955,-81.8138,1.82,0.18,1111122 
SCCF RECON,ioos:station:SCCF:18:1,2013-08-05T23:00:00Z,26.6955,-81.8138,1.76,0.17,1111122 
SCCF RECON,ioos:station:SCCF:18:1,2013-08-06T00:00:00Z,26.6955,-81.8138,1.71,0.17,1111122 
SCCF RECON,ioos:station:SCCF:18:1,2013-08-06T01:00:00Z,26.6955,-81.8138,1.66,0.17,1111122 
SCCF RECON,ioos:station:SCCF:18:1,2013-08-06T02:00:00Z,26.6955,-81.8138,1.61,0.17,1111122 
SCCF RECON,ioos:station:SCCF:18:1,2013-08-06T03:00:00Z,26.6955,-81.8138,1.58,0.18,1111122 
SCCF RECON,ioos:station:SCCF:18:1,2013-08-06T04:00:00Z,26.6955,-81.8138,1.54,0.17,1111122 
SCCF RECON,ioos:station:SCCF:18:1,2013-08-06T05:00:00Z,26.6955,-81.8138,1.53,0.18,1111122 
SCCF RECON,ioos:station:SCCF:18:1,2013-08-06T06:00:00Z,26.6955,-81.8138,1.56,0.18,1111122 
SCCF RECON,ioos:station:SCCF:18:1,2013-08-06T07:00:00Z,26.6955,-81.8138,1.61,0.18,1111122 
SCCF RECON,ioos:station:SCCF:18:1,2013-08-06T08:00:00Z,26.6955,-81.8138,1.66,0.18,1111122 
SCCF RECON,ioos:station:SCCF:18:1,2013-08-06T09:00:00Z,26.6955,-81.8138,1.69,0.18,1111122 
SCCF RECON,ioos:station:SCCF:18:1,2013-08-06T10:00:00Z,26.6955,-81.8138,1.68,0.18,1111122 
SCCF RECON,ioos:station:SCCF:18:1,2013-08-06T11:00:00Z,26.6955,-81.8138,1.65,0.17,1111122 
SCCF RECON,ioos:station:SCCF:18:1,2013-08-06T12:00:00Z,26.6955,-81.8138,1.62,0.18,1111122 
SCCF RECON,ioos:station:SCCF:18:1,2013-08-06T13:00:00Z,26.6955,-81.8138,1.59,0.18,1111122 
SCCF RECON,ioos:station:SCCF:18:1,2013-08-06T14:00:00Z,26.6955,-81.8138,1.57,0.18,1111122 
SCCF RECON,ioos:station:SCCF:18:1,2013-08-06T15:00:00Z,26.6955,-81.8138,1.56,0.18,1111122 
SCCF RECON,ioos:station:SCCF:18:1,2013-08-06T16:00:00Z,26.6955,-81.8138,1.581,0.18,1111122 
SCCF RECON,ioos:station:SCCF:18:1,2013-08-06T17:00:00Z,26.6955,-81.8138,1.68,0.18,1111122 
SCCF RECON,ioos:station:SCCF:18:1,2013-08-06T18:00:00Z,26.6955,-81.8138,1.76,0.18,1111122 
SCCF RECON,ioos:station:SCCF:18:1,2013-08-06T19:00:00Z,26.6955,-81.8138,1.81,0.18,1111122 
SCCF RECON,ioos:station:SCCF:18:1,2013-08-06T20:00:00Z,26.6955,-81.8138,1.85,0.18,1111122 
SCCF RECON,ioos:station:SCCF:18:1,2013-08-06T21:00:00Z,26.6955,-81.8138,1.85,0.18,1111122 
SCCF RECON,ioos:station:SCCF:18:1,2013-08-06T22:00:00Z,26.6955,-81.8138,1.79,0.18,1111122 
SCCF RECON,ioos:station:SCCF:18:1,2013-08-06T23:00:00Z,26.6955,-81.8138,1.71,0.18,1111122 
SCCF RECON,ioos:station:SCCF:18:1,2013-08-07T00:00:00Z,26.6955,-81.8138,1.64,0.17,1111122 
SCCF RECON,ioos:station:SCCF:18:1,2013-08-07T01:00:00Z,26.6955,-81.8138,1.61,0.18,1111122 
SCCF RECON,ioos:station:SCCF:18:1,2013-08-07T02:00:00Z,26.6955,-81.8138,1.58,0.18,1111122 
SCCF RECON,ioos:station:SCCF:18:1,2013-08-07T03:00:00Z,26.6955,-81.8138,1.54,0.18,1111122 
SCCF RECON,ioos:station:SCCF:18:1,2013-08-07T04:00:00Z,26.6955,-81.8138,1.5,0.18,1111122 
SCCF RECON,ioos:station:SCCF:18:1,2013-08-07T05:00:00Z,26.6955,-81.8138,1.48,0.18,1111122 
SCCF RECON,ioos:station:SCCF:18:1,2013-08-07T06:00:00Z,26.6955,-81.8138,1.54,0.18,1111122 
SCCF RECON,ioos:station:SCCF:18:1,2013-08-07T07:00:00Z,26.6955,-81.8138,1.61,0.18,1111122 
SCCF RECON,ioos:station:SCCF:18:1,2013-08-07T08:00:00Z,26.6955,-81.8138,1.67,0.18,1111122 
SCCF RECON,ioos:station:SCCF:18:1,2013-08-07T09:00:00Z,26.6955,-81.8138,1.71,0.18,1111122 
SCCF RECON,ioos:station:SCCF:18:1,2013-08-07T10:00:00Z,26.6955,-81.8138,1.71,0.18,1111122 
SCCF RECON,ioos:station:SCCF:18:1,2013-08-07T11:00:00Z,26.6955,-81.8138,1.71,0.18,1111122 
SCCF RECON,ioos:station:SCCF:18:1,2013-08-07T12:00:00Z,26.6955,-81.8138,1.66,0.18,1111122 
SCCF RECON,ioos:station:SCCF:18:1,2013-08-07T13:00:00Z,26.6955,-81.8138,1.64,0.18,1111122 
SCCF RECON,ioos:station:SCCF:18:1,2013-08-07T14:00:00Z,26.6955,-81.8138,1.61,0.18,1111122 
SCCF RECON,ioos:station:SCCF:18:1,2013-08-07T15:00:00Z,26.6955,-81.8138,1.58,0.18,1111122 
SCCF RECON,ioos:station:SCCF:18:1,2013-08-07T16:00:00Z,26.6955,-81.8138,1.57,0.18,1111122 
SCCF RECON,ioos:station:SCCF:18:1,2013-08-07T17:00:00Z,26.6955,-81.8138,1.62,0.18,1111122 
SCCF RECON,ioos:station:SCCF:18:1,2013-08-07T18:00:00Z,26.6955,-81.8138,1.71,0.18,1111122 
SCCF RECON,ioos:station:SCCF:18:1,2013-08-07T19:00:00Z,26.6955,-81.8138,1.77,0.18,1111122 
SCCF RECON,ioos:station:SCCF:18:1,2013-08-07T20:00:00Z,26.6955,-81.8138,1.84,0.18,1111122 
SCCF RECON,ioos:station:SCCF:18:1,2013-08-07T21:00:00Z,26.6955,-81.8138,1.91,0.18,1111122 
SCCF RECON,ioos:station:SCCF:18:1,2013-08-07T22:00:00Z,26.6955,-81.8138,1.91,0.18,1111122 
SCCF RECON,ioos:station:SCCF:18:1,2013-08-07T23:00:00Z,26.6955,-81.8138,1.83,0.18,1111122 
SCCF RECON,ioos:station:SCCF:18:1,2013-08-08T00:00:00Z,26.6955,-81.8138,1.75,0.18,1111122 
SCCF RECON,ioos:station:SCCF:18:1,2013-08-08T01:00:00Z,26.6955,-81.8138,1.71,0.18,1111122 
SCCF RECON,ioos:station:SCCF:18:1,2013-08-08T02:00:00Z,26.6955,-81.8138,1.67,0.18,1111122 
SCCF RECON,ioos:station:SCCF:18:1,2013-08-08T03:00:00Z,26.6955,-81.8138,1.63,0.18,1111122 
SCCF RECON,ioos:station:SCCF:18:1,2013-08-08T04:00:00Z,26.6955,-81.8138,1.59,0.18,1111122 
SCCF RECON,ioos:station:SCCF:18:1,2013-08-08T05:00:00Z,26.6955,-81.8138,1.56,0.18,1111122 
SCCF RECON,ioos:station:SCCF:18:1,2013-08-08T06:00:00Z,26.6955,-81.8138,1.57,0.18,1111122 
SCCF RECON,ioos:station:SCCF:18:1,2013-08-08T07:00:00Z,26.6955,-81.8138,1.63,0.18,1111122 
SCCF RECON,ioos:station:SCCF:18:1,2013-08-08T08:00:00Z,26.6955,-81.8138,1.69,0.18,1111122 
SCCF RECON,ioos:station:SCCF:18:1,2013-08-08T09:00:00Z,26.6955,-81.8138,1.73,0.18,1111122 
SCCF RECON,ioos:station:SCCF:18:1,2013-08-08T10:00:00Z,26.6955,-81.8138,1.76,0.18,1111122 
SCCF RECON,ioos:station:SCCF:18:1,2013-08-08T11:00:00Z,26.6955,-81.8138,1.75,0.18,1111122 
SCCF RECON,ioos:station:SCCF:18:1,2013-08-08T12:00:00Z,26.6955,-81.8138,1.71,0.18,1111122 
SCCF RECON,ioos:station:SCCF:18:1,2013-08-08T13:00:00Z,26.6955,-81.8138,1.68,0.18,1111122 
SCCF RECON,ioos:station:SCCF:18:1,2013-08-08T14:00:00Z,26.6955,-81.8138,1.64,0.18,1111122 
SCCF RECON,ioos:station:SCCF:18:1,2013-08-08T15:00:00Z,26.6955,-81.8138,1.62,0.17,1111122 
SCCF RECON,ioos:station:SCCF:18:1,2013-08-08T16:00:00Z,26.6955,-81.8138,1.6,0.18,1111122 
SCCF RECON,ioos:station:SCCF:18:1,2013-08-08T18:00:00Z,26.6955,-81.8138,1.351,0.18,1111122 
SCCF RECON,ioos:station:SCCF:18:1,2013-08-08T19:00:00Z,26.6955,-81.8138,1.77,0.17,1111122 
SCCF RECON,ioos:station:SCCF:18:1,2013-08-08T20:00:00Z,26.6955,-81.8138,1.84,0.18,1111122 
SCCF RECON,ioos:station:SCCF:18:1,2013-08-08T21:00:00Z,26.6955,-81.8138,1.89,0.18,1111122 
SCCF RECON,ioos:station:SCCF:18:1,2013-08-08T22:00:00Z,26.6955,-81.8138,1.92,0.18,1111122 
SCCF RECON,ioos:station:SCCF:18:1,2013-08-08T23:00:00Z,26.6955,-81.8138,1.94,0.18,1111122 
SCCF RECON,ioos:station:SCCF:18:1,2013-08-09T00:00:00Z,26.6955,-81.8138,1.88,0.18,1111122 
SCCF RECON,ioos:station:SCCF:18:1,2013-08-09T01:00:00Z,26.6955,-81.8138,1.83,0.18,1111122 
SCCF RECON,ioos:station:SCCF:18:1,2013-08-09T02:00:00Z,26.6955,-81.8138,1.77,0.18,1111122 
SCCF RECON,ioos:station:SCCF:18:1,2013-08-09T03:00:00Z,26.6955,-81.8138,1.73,0.18,1111122 
SCCF RECON,ioos:station:SCCF:18:1,2013-08-09T04:00:00Z,26.6955,-81.8138,1.68,0.18,1111122 
SCCF RECON,ioos:station:SCCF:18:1,2013-08-09T05:00:00Z,26.6955,-81.8138,1.64,0.18,1111122 
SCCF RECON,ioos:station:SCCF:18:1,2013-08-09T06:00:00Z,26.6955,-81.8138,1.61,0.18,1111122 
SCCF RECON,ioos:station:SCCF:18:1,2013-08-09T07:00:00Z,26.6955,-81.8138,1.64,0.19,1111122 
SCCF RECON,ioos:station:SCCF:18:1,2013-08-09T08:00:00Z,26.6955,-81.8138,1.69,0.18,1111122 
SCCF RECON,ioos:station:SCCF:18:1,2013-08-09T09:00:00Z,26.6955,-81.8138,1.75,0.18,1111122 
SCCF RECON,ioos:station:SCCF:18:1,2013-08-09T10:00:00Z,26.6955,-81.8138,1.78,0.18,1111122 
SCCF RECON,ioos:station:SCCF:18:1,2013-08-09T11:00:00Z,26.6955,-81.8138,1.779,0.18,1111122 
SCCF RECON,ioos:station:SCCF:18:1,2013-08-09T12:00:00Z,26.6955,-81.8138,1.75,0.18,1111122 
SCCF RECON,ioos:station:SCCF:18:1,2013-08-09T13:00:00Z,26.6955,-81.8138,1.7,0.18,1111122 
SCCF RECON,ioos:station:SCCF:18:1,2013-08-09T14:00:00Z,26.6955,-81.8138,1.68,0.18,1111122 
SCCF RECON,ioos:station:SCCF:18:1,2013-08-09T15:00:00Z,26.6955,-81.8138,1.64,0.18,1111122 
SCCF RECON,ioos:station:SCCF:18:1,2013-08-09T16:00:00Z,26.6955,-81.8138,1.62,0.19,1111122 
SCCF RECON,ioos:station:SCCF:18:1,2013-08-09T17:00:00Z,26.6955,-81.8138,1.6,0.19,1111122 
SCCF RECON,ioos:station:SCCF:18:1,2013-08-09T18:00:00Z,26.6955,-81.8138,1.67,0.19,1111122 
SCCF RECON,ioos:station:SCCF:18:1,2013-08-09T19:00:00Z,26.6955,-81.8138,1.77,0.19,1111122 
SCCF RECON,ioos:station:SCCF:18:1,2013-08-09T20:00:00Z,26.6955,-81.8138,1.9,0.18,1111122 
SCCF RECON,ioos:station:SCCF:18:1,2013-08-09T21:00:00Z,26.6955,-81.8138,1.94,0.18,1111122 
SCCF RECON,ioos:station:SCCF:18:1,2013-08-09T22:00:00Z,26.6955,-81.8138,1.93,0.18,1111122 
SCCF RECON,ioos:station:SCCF:18:1,2013-08-09T23:00:00Z,26.6955,-81.8138,1.9,0.18,1111122 
SCCF RECON,ioos:station:SCCF:18:1,2013-08-10T00:00:00Z,26.6955,-81.8138,1.87,0.18,1111122 
SCCF RECON,ioos:station:SCCF:18:1,2013-08-10T01:00:00Z,26.6955,-81.8138,1.82,0.19,1111122 
SCCF RECON,ioos:station:SCCF:18:1,2013-08-10T02:00:00Z,26.6955,-81.8138,1.77,0.19,1111122 
SCCF RECON,ioos:station:SCCF:18:1,2013-08-10T03:00:00Z,26.6955,-81.8138,1.74,0.18,1111122 
SCCF RECON,ioos:station:SCCF:18:1,2013-08-10T04:00:00Z,26.6955,-81.8138,1.7,0.18,1111122 
SCCF RECON,ioos:station:SCCF:18:1,2013-08-10T05:00:00Z,26.6955,-81.8138,1.66,0.18,1111122 
SCCF RECON,ioos:station:SCCF:18:1,2013-08-10T06:00:00Z,26.6955,-81.8138,1.64,0.18,1111122 
SCCF RECON,ioos:station:SCCF:18:1,2013-08-10T07:00:00Z,26.6955,-81.8138,1.63,0.18,1111122 
SCCF RECON,ioos:station:SCCF:18:1,2013-08-10T08:00:00Z,26.6955,-81.8138,1.72,0.18,1111122 
SCCF RECON,ioos:station:SCCF:18:1,2013-08-10T09:00:00Z,26.6955,-81.8138,1.79,0.18,1111122 
SCCF RECON,ioos:station:SCCF:18:1,2013-08-10T10:00:00Z,26.6955,-81.8138,1.83,0.17,1111122 
SCCF RECON,ioos:station:SCCF:18:1,2013-08-10T11:00:00Z,26.6955,-81.8138,1.85,0.18,1111122 
SCCF RECON,ioos:station:SCCF:18:1,2013-08-10T12:00:00Z,26.6955,-81.8138,1.83,0.18,1111122 
SCCF RECON,ioos:station:SCCF:18:1,2013-08-10T13:00:00Z,26.6955,-81.8138,1.79,0.18,1111122 
SCCF RECON,ioos:station:SCCF:18:1,2013-08-10T14:00:00Z,26.6955,-81.8138,1.75,0.18,1111122 
SCCF RECON,ioos:station:SCCF:18:1,2013-08-10T15:00:00Z,26.6955,-81.8138,1.72,0.18,1111122 
SCCF RECON,ioos:station:SCCF:18:1,2013-08-10T16:00:00Z,26.6955,-81.8138,1.69,0.18,1111122 
SCCF RECON,ioos:station:SCCF:18:1,2013-08-10T17:00:00Z,26.6955,-81.8138,1.65,0.18,1111122 
SCCF RECON,ioos:station:SCCF:18:1,2013-08-10T18:00:00Z,26.6955,-81.8138,1.64,0.18,1111122 
SCCF RECON,ioos:station:SCCF:18:1,2013-08-10T19:00:00Z,26.6955,-81.8138,1.68,0.18,1111122 
SCCF RECON,ioos:station:SCCF:18:1,2013-08-10T20:00:00Z,26.6955,-81.8138,1.72,0.18,1111122 
SCCF RECON,ioos:station:SCCF:18:1,2013-08-10T21:00:00Z,26.6955,-81.8138,1.767,0.18,1111122 
SCCF RECON,ioos:station:SCCF:18:1,2013-08-10T22:00:00Z,26.6955,-81.8138,1.83,0.18,1111122 
SCCF RECON,ioos:station:SCCF:18:1,2013-08-10T23:00:00Z,26.6955,-81.8138,1.87,0.18,1111122 
SCCF RECON,ioos:station:SCCF:18:1,2013-08-11T00:00:00Z,26.6955,-81.8138,1.86,0.18,1111122 
SCCF RECON,ioos:station:SCCF:18:1,2013-08-11T01:00:00Z,26.6955,-81.8138,1.81,0.18,1111122 
SCCF RECON,ioos:station:SCCF:18:1,2013-08-11T02:00:00Z,26.6955,-81.8138,1.77,0.18,1111122 
SCCF RECON,ioos:station:SCCF:18:1,2013-08-11T03:00:00Z,26.6955,-81.8138,1.73,0.18,1111122 
SCCF RECON,ioos:station:SCCF:18:1,2013-08-11T04:00:00Z,26.6955,-81.8138,1.7,0.18,1111122 
SCCF RECON,ioos:station:SCCF:18:1,2013-08-11T05:00:00Z,26.6955,-81.8138,1.66,0.18,1111122 
SCCF RECON,ioos:station:SCCF:18:1,2013-08-11T06:00:00Z,26.6955,-81.8138,1.63,0.18,1111122 
SCCF RECON,ioos:station:SCCF:18:1,2013-08-11T07:00:00Z,26.6955,-81.8138,1.62,0.17,1111122 
SCCF RECON,ioos:station:SCCF:18:1,2013-08-11T08:00:00Z,26.6955,-81.8138,1.69,0.18,1111122 
SCCF RECON,ioos:station:SCCF:18:1,2013-08-11T09:00:00Z,26.6955,-81.8138,1.75,0.17,1111122 
SCCF RECON,ioos:station:SCCF:18:1,2013-08-11T10:00:00Z,26.6955,-81.8138,1.79,0.17,1111122 
SCCF RECON,ioos:station:SCCF:18:1,2013-08-11T11:00:00Z,26.6955,-81.8138,1.8,0.18,1111122 
SCCF RECON,ioos:station:SCCF:18:1,2013-08-11T12:00:00Z,26.6955,-81.8138,1.789,0.18,1111122 
SCCF RECON,ioos:station:SCCF:18:1,2013-08-11T13:00:00Z,26.6955,-81.8138,1.75,0.17,1111122 
SCCF RECON,ioos:station:SCCF:18:1,2013-08-11T14:00:00Z,26.6955,-81.8138,1.72,0.17,1111122 
SCCF RECON,ioos:station:SCCF:18:1,2013-08-11T15:00:00Z,26.6955,-81.8138,1.69,0.17,1111122 
SCCF RECON,ioos:station:SCCF:18:1,2013-08-11T16:00:00Z,26.6955,-81.8138,1.65,0.17,1111122 
SCCF RECON,ioos:station:SCCF:18:1,2013-08-11T17:00:00Z,26.6955,-81.8138,1.61,0.18,1111122 
SCCF RECON,ioos:station:SCCF:18:1,2013-08-11T18:00:00Z,26.6955,-81.8138,1.58,0.17,1111122 
SCCF RECON,ioos:station:SCCF:18:1,2013-08-11T19:00:00Z,26.6955,-81.8138,1.56,0.17,1111122 
SCCF RECON,ioos:station:SCCF:18:1,2013-08-11T20:00:00Z,26.6955,-81.8138,1.58,0.17,1111122 
SCCF RECON,ioos:station:SCCF:18:1,2013-08-11T21:00:00Z,26.6955,-81.8138,1.64,0.17,1111122 